User: anonymous   Login
Location: Unspecified
(0.0000°N, 0.0000°E)
Time: 08:19:46
(UTC+00:00)
Language:

UPSAT - Orbit

View from above orbital plane
View from above orbital plane
View from above satellite
View from above satellite

Ground track
Ground track

The orbit data is extracted from the following two-line orbital elements,

1 42716U 98067LX  18267.85977388 +.00130907 +00000-0 +45308-3 0  9992
2 42716 051.6281 193.3605 0002280 154.9076 205.2040 15.88586896077546
Epoch (UTC): 24 September 2018 20:38:04
Eccentricity: 0.0002280
inclination: 51.6281°
perigee height: 305 km
apogee height: 308 km
right ascension of ascending node: 193.3605°
argument of perigee: 154.9076°
revolutions per day: 15.88586896
mean anomaly at epoch: 205.2040°
orbit number at epoch: 7754

The dashed part of the orbit path shows where the satellite is in the earth's shadow,  

DLR